Location: ???
(32.3885°N, 98.2106°E)
Time: 05:48:36
(UTC+00:00)

BlueWalker 3 - Visible Passes

Search period start: 14 October 2024 00:00
Search period end: 24 October 2024 00:00
Orbit: 472 x 484 km, 53.2° (Epoch: 13 October)

Date Brightness Start Highest point End Pass type
(mag) Time Alt. Az. Time Alt. Az. Time Alt. Az.
18 Oct 4.8 22:45:06 10° NNE 22:45:37 10° NNE 22:46:08 10° NE visible
21 Oct 2.8 22:54:34 10° NNW 22:58:07 46° NE 23:01:40 10° ESE visible
22 Oct 3.0 22:26:19 13° NNW 22:29:23 39° NE 22:32:51 10° ESE visible
23 Oct 3.3 21:59:19 25° N 22:00:37 34° NE 22:04:00 10° ESE visible
